THOR ABLESTAR DEB, 645

Orbit data source: Space-Track

THOR ABLESTAR DEB, 645 is space debris in LEO originally from a launch on Thu, 29 Jun 1961 UTC launched from the Air Force Eastern Test Range (AFETR). Debris objects in space refer to the collection of defunct objects orbiting the Earth. Examples of debris include non-operational satellites, rocket bodies, and fragments generated from explosions, collisions, or faulty payload assembly.

Loading next visibility...
Identifier
645, 1961-015GW
Orbit
LEO
Country
Flag of USUS
Related business
Manufacturer
Unknown
Mission
Spacecraft
Bus & Motor
Unknown
Mass
Unknown
Launch date (UTC)
1961-06-29 (65 years ago)
Launch vehicle
Unknown
Launch site
Air Force Eastern Test Range (AFETR)
Object type
Payload
Rocket body
Debris
Shape & HBR
Unknown shape, 0.1 m
Radar Cross Section
Small (<0.1 m²)

Expand to show TLE details & history
Last TLE update: 15 hours ago

TLE from 15 hours ago
0 THOR ABLESTAR DEB
1 00645U 61015GW  26135.85848101  .00000145  00000-0  43066-3 0  9992
2 00645  66.5859 292.5190 0407042 149.7689  11.9285 13.04904029 75599
Epoch: 2026-05-15T20:36Z
TLE epoch observation values (Epoch: 2026-05-15T20:36:12.759Z)
Latitude
15.82285°
Longitude
-77.12984°
Altitude
941.277 km
Speed
7.528 km/s
True Right ascension
07h 02m 01s
True Declination
15° 44' 06"
Sunlit
Object was in daylight at epoch
Visualization orbit readout
Latitude
Unknown
Longitude
Unknown
Altitude
Unknown
Speed
Unknown
Apparent Right ascension
Unknown
Apparent Declination
Unknown
Sunlit
N/A
Visualization observer readout
Local Sidereal Time
20:24:41
Azimuth
Unknown
Elevation
Unknown
Doppler factor
Unknown
Orbital elements
Apogee altitude
1,551.564 km
Perigee altitude
931.269 km
Semi-major axis
7,619.554 km
Eccentricity
0.0407
Inclination
66.5859°
RAAN
292.519°
Arg. of periapsis
149.7689°
True anomaly
12.94292°
Mean anomaly
11.9285°
Eccentric anomaly
12.43051°
Mean motion
3.26324 °/min
Orbital period
110.32 mins
BSTAR
0.00043066

Documentation

Showing up to 5 results
|